Погода в Ачиреале

Италия     37°36′45″N   15°09′56″E
темп.,
°C
ветер,
м/с
пор.,
м/с
влажн.,
%
обл.,
%
осадки,
мм/ч
давл.,
гПа
погр.,
м
27 января, ср
ср2701:00+10зюз44510 0.0 1017460
04:00+10зсз44530 0.0 1017335
07:00+10з33521 0.0 1017382
10:00+11з445033 0.0 1019377
13:00+13вюв344544 0.0 1018834
16:00+12всв5551100 0.0 10171012
19:00+12ююз244967 0.0 10181207
22:00+11юз675868 0.0 1017671
28 января, чт
чт2801:00+11з455774 0.0 1016440
04:00+11с3358100 0.0 1015426
07:00+12св336175 0.0 1016704
10:00+12св22631 0.0 1018624
13:00+12ююв22600 0.0 1019526
16:00+12ю66690 0.0 1018485
19:00+13зюз677317 0.0 1019525
22:00+13з577392 0.0 1018475
29 января, пт
пт2901:00+13з577263 0.0 1016318
04:00+13зсз56700 0.0 1015226
07:00+14з577312 0.0 1015237
10:00+15з457396 0.0 1016186
13:00+17з467274 0.0 101487
16:00+17зсз3674100 0.0 101392
19:00+16зюз7117767 0.0 1012244
22:00+16з69760 0.0 1011238
30 января, сб
сб3001:00+16з577327 0.0 1010130
04:00+16з8106357 0.0 1009170
07:00+16з9115645 0.0 1009255
10:00+16зсз5858100 0.0 1010163
13:00+16св2463100 0.0 101071
16:00+15в457252 0.0 1009109
19:00+16зюз7107828 0.0 1009266
22:00+15зюз11147760 0.0 1008418
31 января, вс
вс3101:00+15зюз9127680 0.0 1005365
04:00+15зюз81078100 0.0 1002284
07:00+15з6873100 0.1 1002332
10:00+15з467266 0.3 1003370
13:00+15зсз386333 0.9 1002540
16:00+15з811580 0.1 1002756
19:00+14з1112630 0.1 1003944
22:00+13з696651 0.3 1005905